Location: Campestrin
(46.4667°N, 11.7167°E)
Time: 04:57:08
(UTC+00:00)

Resurs 01 Rocket - Pass Details

Date: 18 April 2021
Orbit: 634 x 644 km, 97.9° (Epoch: 16 May)

Event Time Altitude Azimuth Distance (km) Brightness Sun altitude
Exits shadow 20:50:18 14° 227° (SW) 1,795 3.9 -24.2°
Maximum altitude 20:52:48 21° 267° (W) 1,445 3.8 -24.5°
Drops below altitude 10° 20:56:13 10° 317° (NW) 2,051 5.3 -24.8°
Sets 20:58:55 0° 334° (NNW) 2,967 6.4 -25.1°
